Retour au catalogue

COSMOS 1275 DEB

LostPO
NORAD 42160·DEBRIS·🇷🇺 Russia

Lancé Jun 4, 1981 depuis Plesetsk Cosmodrome

Loading…

Prochains Passages (prochaines 24 heures)

TLE

PériméSource: Space-Track

Époque: Sep 4, 2022, 00:23 UTC

1 42160U 81053RY  22247.01634367  .00001443  00000-0  57659-3 0  9994
2 42160  82.9185 343.2488 0009045 108.0672 252.1500 14.27849145408846

Suivez COSMOS 1275 DEB en temps réel avec AllMySat

Download on the App Store